This demonstration page uses our WeatherBlox Daily Observations layout. Learn more.

Left ArrowRight Arrow

39.92423, -83.80882

Hourly Observations for August 9, 2019

Temp ( °F °C ) Dew Point ( °F °C ) Humidity (%) Winds ( mph kmh ) Pressure ( in mb ) Visibility ( mi km ) Precip ( " mm )
12:03 am 00:03 Mostly Cloudy 68 20 64 18 88 88 NW 7 11 29.85 1011 10 16 0.00 0.00
12:56 am 00:56 Clear 66 18.9 66 18.9 100 100 WNW 7 11 29.87 1011 10 16 0.00 0.00
1:56 am 01:56 Clear 66 18.9 66 18.9 100 100 W 8 13 29.86 1011 10 16 N/A
2:56 am 02:56 Clear 66 18.9 66 18.9 100 100 W 6 9 29.87 1011 10 16 N/A
3:56 am 03:56 Partly Cloudy 64 17.8 64 17.8 100 100 NNW 5 7 29.87 1012 9 14 N/A
4:56 am 04:56 Mostly Cloudy 65 18.3 65 18.3 100 100 NW 5 7 29.88 1012 9 14 N/A
5:56 am 05:56 Mostly Clear with Mist and Fog 63 17.2 63 17.2 100 100 N N/A 29.91 1013 3 4 N/A
6:04 am 06:04 Clear with Mist and Fog 63 17 63 17 100 100 N N/A 29.91 1013 1 2 0.01 0.25
6:18 am 06:18 Mostly Clear with Mist and Fog 63 17 63 17 100 100 N N/A 29.91 1013 1 1 0.01 0.25
6:27 am 06:27 Mostly Clear with Fog 63 17 63 17 100 100 N N/A 29.91 1013 1 1 0.01 0.25
6:36 am 06:36 Partly Cloudy with Fog 63 17 63 17 100 100 N 3 6 29.91 1013 0 0 0.01 0.25
6:51 am 06:51 Partly Cloudy with Fog 63 17 63 17 100 100 N N/A 29.92 1013 1 1 0.01 0.25
6:56 am 06:56 Mostly Cloudy with Fog 62 16.7 62 16.7 100 100 N N/A 29.93 1014 0 0 0.01 0.25
7:03 am 07:03 Mostly Cloudy with Mist and Fog 63 17 63 17 100 100 N N/A 29.92 1013 1 1 N/A
7:12 am 07:12 Partly Cloudy with Fog 63 17 63 17 100 100 N N/A 29.93 1014 1 1 N/A
7:17 am 07:17 Mostly Cloudy with Mist and Fog 63 17 63 17 100 100 N N/A 29.93 1014 1 2 N/A
7:39 am 07:39 Mostly Cloudy with Mist and Fog 63 17 63 17 100 100 N N/A 29.93 1014 3 4 N/A
7:47 am 07:47 Cloudy with Mist and Fog 64 18 64 18 100 100 N N/A 29.93 1014 3 5 N/A
7:56 am 07:56 Mostly Cloudy with Mist and Fog 64 17.8 64 17.8 100 100 N N/A 29.94 1014 4 6 N/A
8:56 am 08:56 Sunny 69 20.6 62 16.7 78 78 N N/A 29.95 1014 10 16 N/A
9:56 am 09:56 Sunny 72 22.2 56 13.3 57 57 NW 6 9 29.96 1014 10 16 N/A
10:56 am 10:56 Sunny 74 23.3 57 13.9 56 56 NNW 7 11 29.96 1015 10 16 N/A
11:56 am 11:56 Sunny 77 25 57 13.9 50 50 NW 7 11 29.96 1015 10 16 N/A
12:56 pm 12:56 Sunny 78 25.6 57 13.9 48 48 WNW 10 17 29.96 1014 10 16 N/A
1:56 pm 13:56 Sunny 78 25.6 57 13.9 48 48 VRB 6 9 29.95 1014 10 16 N/A
2:56 pm 14:56 Sunny 81 27.2 55 12.8 41 41 W 10 17 29.94 1014 10 16 N/A
3:56 pm 15:56 Sunny 80 26.7 55 12.8 42 42 VRB 6 9 29.93 1013 10 16 N/A
4:56 pm 16:56 Sunny 81 27.2 55 12.8 41 41 NW 9 15 29.92 1013 10 16 N/A
5:56 pm 17:56 Sunny 80 26.7 56 13.3 44 44 NNW 10 17 29.92 1013 10 16 N/A
6:56 pm 18:56 Sunny 77 25 56 13.3 48 48 NNW 12 19 29.93 1013 10 16 N/A
7:56 pm 19:56 Sunny 74 23.3 57 13.9 56 56 NNW 7 11 29.93 1014 10 16 N/A
8:56 pm 20:56 Clear 70 21.1 58 14.4 66 66 NNW 5 7 29.94 1014 10 16 N/A
9:56 pm 21:56 Clear 67 19.4 58 14.4 73 73 NW 5 7 29.96 1014 10 16 N/A
10:56 pm 22:56 Clear 65 18.3 58 14.4 78 78 WNW 3 6 29.97 1015 10 16 N/A
11:56 pm 23:56 Clear 64 17.8 58 14.4 81 81 NNW 3 6 29.97 1015 10 16 N/A

Powered by AerisWeather